User: anonymous   Login
Location: Unspecified
(0.0000°N, 0.0000°E)
Time: 21:08:03
(UTC+02:00)
Language:

Ariane H10 - Orbit

View from above orbital plane
View from above orbital plane
View from above satellite
View from above satellite

Ground track
Ground track

The orbit data is extracted from the following two-line orbital elements,

1 19622U 88098B   15108.57053682  .00006825  00000-0  15742-2 0  9996
2 19622 004.0349 339.0193 6461038 268.2688 014.9521 03.37116592277249
Epoch (UTC): 18 April 2015 13:41:34
Eccentricity: 0.6461038
inclination: 4.0349°
perigee height: 271 km
apogee height: 24549 km
right ascension of ascending node: 339.0193°
argument of perigee: 268.2688°
revolutions per day: 3.37116592
mean anomaly at epoch: 14.9521°
orbit number at epoch: 27724

The dashed part of the orbit path shows where the satellite is in the earth's shadow,  

DLR